Terug naar catalogus

STARLINK-31353

ActiefCommunicatieVLEO
NORAD 58980·PAYLOAD·🇺🇸 United States

Gelanceerd Feb 15, 2024 vanaf Vandenberg Space Force Base

Loading…

Volgende Passages (komende 24 uur)

TLE

VersSource: CelesTrak SupGP

Epoch: Sep 15, 2026, 02:09 UTC

1 58980C 24031R   26258.09006944  .00045428  00000+0  13422-2 0  2589
2 58980  53.1575 134.9112 0001312  76.0904 152.9019 15.34366735    13

Volg STARLINK-31353 in realtime met AllMySat

Download on the App Store